Location: Doazon
(43.4500°N, 0.5500°W)
Time: 07:14:46
(UTC+00:00)

BlueWalker 3 - Pass Details

Date: 05 December 2025
Orbit: 451 x 463 km, 53.2° (Epoch: 13 January)

Event Time Altitude Azimuth Distance (km) Brightness Sun altitude
Rises 18:14:04 0° 307° (NW) 2,494 6.1 -18.9°
Reaches altitude 10° 18:16:15 10° 312° (NW) 1,617 5.0 -19.3°
Enters shadow 18:19:38 56° 15° (NNE) 559 1.9 -19.9°
